Starlink 6278

operational
NORAD ID: 56412 Int'l Des: 2023-061 Owner: SPXS Country: US Constellation: starlink
LEOCIRCULAR

关于 Starlink 6278

正在加载描述...

实时位置

正在加载3D地球...

即将过境

高度历史

Altitude vs Time

uPlot chart will show altitude changes over time

两行轨道根数

1 56412U 23061AQ 25353.42862380 -.00000464 00000-0 -19298-4 0 9990
2 56412 43.0043 260.3794 0000715 283.8772 76.1991 15.02533038144838
Epoch: Dec 19, 2025 • Age: 17 hours

当前状态

高度 567.5 km
速度 7.58 km/s
星下点 -32.21°S, 71.11°E
发射日期 May 4, 2023
运行时间 2.6 years
类型 internet

技术详情

分类 Payload
质量 305.00 kg
干质量 290.00 kg
总质量 305.00 kg
长度 0.20 m
直径 2.80 m
跨度 9.00 m
形状 Box + pan
制造商 SPXS
平台类型 Starlink
阶段状态 In Orbit
所有者/国家 SPXS/US

大型星座

Loading constellations...